Lid_Strength_Index
3 3 3 3 3 3 3 3 3 3 4 4 4 4 3 2 1 1 2 -0 3 7 6 6 6 7 8 8 12 12 11 13 13 13 14 20 25 20 22 19 18 17 18 20 23 27 25 12 12 15 12 9 10 10
2 2 3 3 3 3 3 3 3 3 4 4 4 4 3 2 1 -1 3 0 0 4 6 5 4 3 4 5 7 8 9 10 9 12 14 16 21 22 23 24 15 17 14 17 15 16 12 12 12 10 10 9 10 10
2 3 3 3 3 3 3 3 3 3 4 4 4 4 3 2 1 -1 2 2 2 5 5 6 7 5 3 4 3 9 9 7 8 7 11 12 15 13 22 19 18 14 11 14 14 12 13 12 11 11 10 10 10 9
2 3 3 3 3 3 3 3 3 4 4 4 4 4 3 2 1 -1 2 1 2 4 9 8 6 6 3 3 4 4 7 6 5 7 12 16 18 11 15 14 14 13 12 15 14 12 12 11 12 12 11 10 11 11
2 2 3 3 3 3 3 3 3 4 4 4 4 4 3 2 0 1 1 1 1 5 9 10 8 6 5 4 5 5 5 6 10 9 12 14 12 12 12 12 14 12 14 15 15 10 11 11 10 10 11 11 10 11
2 3 3 3 3 3 3 3 4 4 5 5 4 4 3 2 1 3 5 2 1 1 9 13 10 14 7 6 5 6 5 6 9 12 14 16 13 11 20 22 10 9 9 8 9 8 9 9 9 9 10 10 11 11
2 3 3 3 3 3 3 3 4 5 5 5 4 4 3 3 3 6 5 4 1 2 9 13 13 10 8 7 9 10 7 7 8 11 15 13 12 9 16 18 10 9 9 9 8 8 9 8 10 8 9 9 13 13
3 3 3 3 3 3 3 4 4 5 5 5 4 4 2 2 1 4 2 0 1 6 8 15 19 12 7 10 10 10 10 7 8 10 13 14 11 11 14 11 9 8 8 9 8 10 10 10 11 11 9 13 13 13
3 3 3 3 3 3 3 4 5 5 5 4 4 3 5 3 5 7 1 1 4 8 11 16 16 17 8 12 9 9 8 11 12 11 15 9 13 14 11 10 9 9 10 11 14 14 12 12 13 15 12 11 11 10
3 3 3 3 3 3 4 4 5 5 5 5 9 13 9 6 3 4 4 6 7 9 19 19 22 17 9 14 14 13 11 13 16 15 13 12 18 10 11 14 15 16 16 18 17 14 16 16 16 17 19 16 15 14
3 3 3 3 3 3 4 4 5 6 7 14 17 17 8 4 8 7 10 11 13 13 19 21 19 14 11 16 17 12 13 13 17 18 14 18 20 11 18 19 19 19 19 20 20 20 20 21 21 22 22 22 20 19
3 3 3 3 3 3 4 5 6 12 14 10 10 9 11 11 11 11 12 15 19 17 19 18 16 14 15 14 14 13 13 15 16 20 16 22 14 26 27 25 24 23 24 24 24 24 24 24 27 27 26 26 24 22
3 3 2 2 3 3 4 5 6 6 8 15 16 16 13 13 14 15 17 19 20 22 18 16 15 12 11 12 15 15 15 16 21 21 21 17 26 30 32 32 30 31 31 31 30 30 28 30 33 33 30 28 27 27
3 3 2 3 3 4 5 5 5 7 15 20 22 20 18 13 16 14 15 17 18 19 16 15 12 13 15 14 14 14 16 19 22 24 21 20 29 31 31 30 33 31 34 34 33 34 33 32 31 32 31 29 30 28
3 3 3 3 4 4 5 5 5 12 16 20 22 22 20 17 19 24 28 25 20 20 13 16 15 13 14 13 17 19 22 22 22 20 20 30 30 29 30 31 34 35 33 35 36 35 33 33 33 32 32 31 30 28
4 5 7 5 6 6 5 6 13 15 20 17 22 21 19 18 15 20 24 23 22 17 16 15 15 16 16 17 18 19 22 24 19 24 31 31 33 33 32 30 30 33 33 33 35 35 33 33 33 33 33 32 30 29
7 14 6 6 6 6 6 15 14 16 18 24 22 31 28 24 20 20 22 18 19 18 14 16 17 18 17 21 25 25 21 23 32 32 31 31 32 33 32 33 34 34 35 35 35 34 34 33 35 35 33 32 30 28
15 10 6 6 9 10 18 20 19 22 22 25 25 28 31 24 24 24 23 22 22 17 17 17 18 20 21 23 24 27 30 31 31 32 30 28 28 28 29 31 31 32 33 34 35 34 33 34 35 32 32 30 30 29
10 8 6 7 10 17 18 20 20 24 23 32 33 31 31 29 25 25 25 23 22 22 22 17 15 22 23 33 32 30 30 32 31 30 32 33 34 33 32 32 33 34 34 33 32 32 31 31 31 31 30 30 29 27
8 8 7 7 9 15 19 22 22 27 29 28 33 33 32 31 27 26 26 26 25 23 20 19 24 36 35 34 32 31 33 32 33 32 36 34 34 37 35 34 33 33 33 33 32 31 32 31 30 31 29 27 26 25
14 13 11 16 21 21 23 28 27 27 34 31 35 31 32 32 31 29 27 28 26 33 29 37 36 37 38 36 36 36 35 34 35 38 39 38 38 38 35 35 36 37 36 33 33 31 32 32 30 28 28 28 26 24
25 13 25 21 24 26 26 27 26 28 30 33 32 34 35 35 33 31 31 31 35 35 35 36 35 36 36 36 40 41 40 42 44 42 39 39 39 39 38 39 38 37 35 34 34 32 31 31 30 29 29 28 25 23
19 23 29 27 25 26 26 25 26 27 27 32 34 34 35 33 34 29 34 35 35 34 35 36 36 37 38 41 43 43 45 43 43 45 45 44 42 39 39 37 38 35 33 32 36 32 32 31 30 29 27 25 23 22
22 33 34 34 32 30 28 28 27 27 27 28 29 31 33 32 30 31 35 37 35 34 34 35 36 35 36 39 40 43 44 46 45 44 45 45 41 39 41 37 35 34 34 32 32 32 31 30 29 28 25 23 23 22
28 35 35 36 33 31 32 30 29 28 30 30 29 30 31 29 30 35 37 37 36 35 35 34 34 36 35 37 42 45 45 44 42 43 41 43 42 40 36 36 35 32 33 36 33 33 32 30 29 27 24 23 23 23
38 37 37 37 34 33 34 34 33 33 32 29 30 28 28 29 30 37 38 36 36 35 35 35 36 36 35 39 40 40 41 43 44 44 39 41 40 38 35 34 33 32 33 30 31 32 31 30 29 26 24 23 22 23
37 36 34 29 30 30 32 31 30 31 33 34 34 33 30 31 37 38 34 33 34 33 33 33 35 36 36 37 39 40 40 42 40 37 37 36 36 34 32 33 32 31 29 30 30 31 30 29 28 25 24 23 23 22
36 35 36 32 32 32 34 34 34 35 34 32 33 37 37 39 39 35 34 32 32 33 33 34 34 35 35 36 36 37 37 38 38 40 41 37 35 33 30 28 28 25 29 29 29 29 28 28 26 25 25 25 24 23
39 36 33 35 33 33 35 35 35 32 30 33 34 36 37 35 34 35 33 32 32 33 34 34 34 34 34 34 34 33 36 36 37 38 39 38 36 33 29 29 29 29 30 29 27 23 26 26 25 25 25 25 24 23
38 35 33 34 34 35 33 32 32 30 28 30 30 32 33 33 32 30 32 33 34 35 35 35 35 35 37 36 35 34 35 39 39 39 40 39 34 30 29 29 29 30 30 29 28 26 23 25 24 25 26 26 26 26
35 33 32 31 32 31 30 29 28 27 28 30 30 33 34 33 32 30 31 32 33 33 34 35 35 35 35 36 38 39 37 37 33 32 32 30 29 28 28 29 29 29 29 28 27 27 27 28 28 28 28 28 28 28
33 32 31 32 31 28 28 29 30 31 30 31 32 31 32 33 35 31 30 31 32 33 33 34 35 36 35 35 35 35 33 33 33 32 30 27 27 27 27 28 28 28 29 28 28 28 28 29 29 29 30 30 30 29
32 31 30 29 30 30 29 29 30 32 31 32 32 32 33 33 35 31 27 28 31 32 32 32 33 34 34 33 33 33 32 34 32 27 25 23 23 25 27 28 27 28 28 29 29 28 29 29 29 29 29 29 29 29